Total_Precipitation_Accumulation
2.51 3.26 3.95 4.43 5.03 5.77 6.32 6.23 5.63 5.24 4.83 4.36 3.91 3.99 3.91 3.68 3.46 3.29 3.17 3.22 3.12 2.97 3.06 2.73 2.87 2.52 2.59 2.76 2.93 3.30 3.53 3.46 3.43 3.76 3.85 3.40 2.95 2.98 2.89 2.76 3.02 3.03 3.02
2.60 3.38 3.96 4.06 4.02 4.28 4.49 4.01 3.84 3.89 3.62 3.47 3.49 3.50 3.42 3.13 2.99 3.03 3.34 3.02 3.01 2.91 2.71 2.82 2.60 2.57 2.83 2.86 3.01 3.30 3.43 3.38 3.45 3.69 4.09 3.84 3.76 3.21 2.43 2.62 2.75 2.84 3.10
2.66 3.19 3.34 3.30 3.11 3.04 3.03 2.83 2.82 3.17 3.21 3.31 3.39 3.42 3.45 3.29 3.16 3.08 3.33 2.95 2.70 2.64 2.71 2.62 2.69 2.89 2.59 2.88 3.09 3.12 3.41 3.52 3.38 3.37 3.85 3.86 3.77 3.26 2.60 2.42 2.47 2.70 3.05
2.61 2.66 2.23 2.03 2.09 2.15 2.27 2.55 2.69 2.90 2.88 3.06 3.05 2.99 2.79 2.70 2.65 2.69 2.89 2.93 2.63 2.48 2.49 2.61 2.93 3.10 2.82 3.08 2.64 2.84 3.23 3.47 3.39 3.42 3.18 3.03 3.13 3.34 3.19 2.71 2.46 2.57 2.71
1.66 1.59 1.46 1.44 1.62 1.87 2.12 2.46 2.64 2.74 2.69 2.70 2.82 3.01 2.94 2.95 2.84 2.79 3.07 3.09 3.12 2.88 2.55 2.55 2.84 3.05 3.05 3.16 3.00 3.25 3.04 2.99 3.02 3.13 3.13 3.07 2.94 2.72 2.91 2.94 2.75 2.62 2.32
1.03 1.13 1.24 1.45 1.69 1.85 1.93 2.16 2.35 2.62 2.66 2.64 2.71 2.77 2.88 3.10 3.08 3.06 2.91 2.77 2.90 2.87 2.62 2.61 2.95 2.99 3.03 3.21 3.09 3.07 2.95 2.98 3.00 2.89 2.80 3.09 3.07 2.87 2.96 2.71 2.66 2.57 2.08
0.88 1.09 1.24 1.47 1.57 1.63 1.63 1.78 1.89 2.13 2.37 2.46 2.49 2.58 2.75 2.92 2.91 2.98 2.92 2.80 2.59 2.46 2.57 2.71 3.05 3.00 2.99 2.96 3.05 3.00 3.03 3.11 3.14 2.99 2.79 2.80 2.84 2.88 2.92 2.86 2.48 2.34 2.06
0.82 0.93 1.12 1.20 1.27 1.47 1.65 1.81 1.79 1.81 1.88 1.98 2.21 2.36 2.39 2.52 2.57 2.92 2.81 2.75 2.60 2.45 2.55 2.68 2.64 2.63 2.73 2.63 2.96 2.80 2.79 2.91 2.97 2.81 3.16 3.04 2.65 2.80 2.88 3.02 3.23 2.97 2.62
0.90 0.90 0.91 1.12 1.25 1.21 1.28 1.47 1.56 1.66 1.75 1.82 2.02 2.03 2.01 2.13 2.37 2.46 2.33 2.18 2.28 2.38 2.49 2.51 2.57 2.61 2.61 2.65 2.88 2.78 2.82 3.03 2.86 2.85 3.27 3.07 2.67 2.66 2.75 2.98 3.33 3.61 3.18
0.86 0.93 0.95 1.04 1.12 1.16 1.30 1.36 1.45 1.60 1.70 1.73 1.82 1.68 1.77 1.86 2.08 2.19 2.17 2.09 2.03 2.20 2.35 2.43 2.53 2.58 2.54 2.63 2.80 2.65 2.84 2.95 2.85 2.86 2.96 2.90 2.65 2.70 2.80 2.99 3.25 3.55 3.49
0.75 0.89 0.92 1.02 1.04 1.04 1.18 1.35 1.53 1.63 1.57 1.60 1.65 1.69 1.78 1.94 2.02 1.99 2.04 2.06 2.09 2.23 2.36 2.45 2.52 2.52 2.54 2.68 2.80 2.64 2.81 2.79 2.89 2.80 2.77 2.74 2.97 3.03 2.86 3.03 3.17 3.42 3.67
0.84 0.91 0.92 0.95 0.94 0.96 1.04 1.20 1.43 1.58 1.63 1.63 1.74 1.85 1.91 2.00 2.07 1.95 2.02 2.24 2.27 2.33 2.44 2.54 2.62 2.51 2.60 2.74 2.68 2.67 2.75 2.79 2.76 2.87 3.08 2.99 3.18 3.20 3.14 3.34 3.34 3.43 3.71
0.81 0.84 0.99 0.94 0.89 0.93 1.00 1.16 1.46 1.66 1.87 1.98 1.97 2.00 1.94 1.99 2.11 2.16 2.18 2.29 2.40 2.46 2.46 2.45 2.51 2.66 2.84 2.85 2.67 2.66 2.66 2.57 2.48 2.66 2.96 3.25 3.73 3.57 3.40 3.29 3.21 3.25 3.33
0.75 0.87 1.00 1.09 1.17 1.18 1.19 1.32 1.50 1.59 1.78 1.85 1.86 1.98 2.06 2.19 2.33 2.40 2.45 2.46 2.43 2.45 2.53 2.62 2.63 2.70 2.72 2.69 2.70 2.76 2.76 2.70 2.55 2.56 2.69 2.86 3.17 3.34 3.47 3.25 3.15 3.23 3.32
0.92 0.96 1.09 1.23 1.33 1.42 1.41 1.39 1.48 1.56 1.76 2.14 2.34 2.50 2.52 2.55 2.67 2.73 2.70 2.72 2.65 2.56 2.78 2.85 2.83 2.79 2.72 2.52 2.77 2.95 2.81 2.87 2.75 2.66 2.59 2.43 2.56 2.75 2.95 2.80 3.10 3.30 3.25
1.11 1.23 1.29 1.38 1.42 1.50 1.61 1.67 1.70 1.81 2.02 2.46 2.82 2.96 2.99 3.01 3.04 3.06 3.04 3.04 2.99 3.12 3.15 3.00 2.94 2.86 2.59 2.79 2.89 2.92 2.92 3.00 2.92 2.81 2.74 2.54 2.37 2.35 2.50 2.57 2.78 3.04 3.06
1.10 1.19 1.33 1.47 1.54 1.65 1.74 1.88 1.97 2.08 2.25 2.51 2.73 2.83 2.91 2.98 3.14 3.14 3.13 3.12 3.12 3.15 3.16 3.23 3.19 3.06 3.15 3.20 2.87 2.82 2.80 2.83 2.80 2.98 3.07 2.62 2.22 2.46 2.40 2.48 2.48 2.38 2.51
1.12 1.22 1.30 1.52 1.69 1.87 2.10 2.38 2.54 2.67 2.66 2.74 2.88 2.97 2.94 2.96 3.01 3.00 2.90 2.91 3.04 3.08 3.03 2.99 2.93 2.89 2.88 3.00 2.73 2.67 2.53 2.52 2.53 2.59 2.65 2.63 2.45 2.40 2.44 2.38 2.21 2.00 2.00
1.33 1.52 1.72 1.82 1.91 2.01 2.18 2.43 2.72 2.91 2.93 2.81 2.89 3.03 3.12 3.21 3.11 3.02 3.00 3.01 3.08 2.98 2.93 2.91 2.92 2.81 2.77 2.84 2.63 2.61 2.39 2.33 2.25 2.23 2.24 2.27 2.12 2.21 2.22 2.13 2.03 1.92 1.81
1.46 1.63 1.81 1.90 1.91 2.06 2.17 2.29 2.50 2.64 2.72 2.76 2.89 3.02 3.12 3.29 3.39 3.34 3.35 3.28 3.19 3.13 3.11 3.06 3.05 2.96 2.87 2.99 2.73 2.61 2.36 2.31 2.29 2.39 2.35 2.30 2.12 2.12 2.03 1.88 1.88 1.72 1.59
1.40 1.45 1.52 1.67 1.75 1.84 1.97 2.17 2.28 2.27 2.37 2.48 2.53 2.71 2.95 3.19 3.35 3.44 3.45 3.46 3.37 3.27 3.07 2.91 2.88 2.79 2.75 2.91 2.73 2.57 2.31 2.28 2.37 2.45 2.49 2.41 2.31 2.01 1.88 1.75 1.65 1.63 1.78
1.37 1.38 1.47 1.59 1.68 1.84 2.15 2.37 2.36 2.31 2.35 2.46 2.59 2.74 2.97 3.06 3.12 3.24 3.29 3.45 3.42 3.30 3.18 2.94 2.73 2.59 2.43 2.40 2.43 2.28 2.18 2.21 2.27 2.35 2.46 2.49 2.40 2.11 1.98 1.82 1.69 1.76 1.76
1.43 1.38 1.42 1.56 1.79 2.05 2.33 2.58 2.58 2.60 2.64 2.70 2.80 2.88 2.97 3.07 3.15 3.23 3.23 3.24 3.22 3.06 2.93 2.77 2.65 2.55 2.46 2.40 2.25 1.99 1.94 2.00 1.97 2.08 2.46 2.56 2.40 2.17 1.90 1.81 1.82 1.76 1.64
1.47 1.45 1.48 1.60 1.80 1.94 2.07 2.32 2.48 2.54 2.71 2.73 2.67 2.66 2.67 2.74 2.82 2.94 2.98 2.93 2.84 2.78 2.71 2.62 2.55 2.46 2.39 2.29 2.21 2.05 1.93 1.93 1.89 1.88 2.09 2.19 2.13 1.93 1.77 1.69 1.62 1.55 1.57
1.58 1.58 1.63 1.74 1.79 1.81 1.87 2.00 2.20 2.36 2.57 2.70 2.72 2.75 2.76 2.79 2.84 2.90 2.98 2.87 2.71 2.69 2.58 2.44 2.48 2.48 2.32 2.27 2.30 2.14 1.97 1.93 2.02 2.03 1.96 2.01 2.08 2.05 1.96 1.95 1.89 1.83 1.76
1.65 1.73 1.82 1.86 1.86 1.84 1.93 2.03 2.20 2.44 2.72 2.73 2.66 2.69 2.77 2.87 2.96 3.01 3.04 3.10 2.81 2.72 2.58 2.49 2.43 2.35 2.23 2.14 1.99 1.93 1.89 1.83 1.83 1.76 1.75 1.90 2.07 2.19 2.19 2.23 2.19 2.11 2.00